[[{"header":{"parameterUnit":"m.s-1","parameterCategory":1,"la1":30.2992,"la2":30.254,"lo1":-89.0895,"lo2":-89.0443,"dy":0.0025,"dx":0.0025,"nx":19,"ny":19,"refTime":"2026-04-15T03:00:00:Z","depth":0,"parameterNumber":2,"parameterNumberName":"U-component_of_WINDS"},"data":[0,0,0,-3.0192,-3.0194,-3.031,-3.0311,-3.0462,-3.0463,0,0,0,0,0,0,0,0,0,0,0,-3.0159,-3.016,-3.0192,-3.0194,-3.031,-3.0311,-3.0461,-3.0463,0,0,0,0,0,0,0,0,0,0,0,-3.0159,-3.016,-3.0161,-3.0195,-3.031,-3.0311,-3.0461,-3.0373,0,0,0,0,0,0,0,0,0,0,-3.026,-3.0231,-3.016,-3.0161,-3.0196,-3.031,-3.0311,-3.0368,-3.0378,-3.041,0,-3.044,0,-3.0454,-3.0473,-3.0474,0,0,0,-3.0193,-3.0223,-3.0253,-3.0162,-3.0197,-3.031,-3.0258,-3.0374,-3.0385,-3.0423,-3.0442,-3.0447,-3.0456,-3.0474,-3.0475,-3.0666,-3.0667,0,0,-3.0187,-3.0181,-3.0245,-3.026,-3.0243,-3.0254,-3.0261,-3.038,-3.04,-3.0442,-3.0451,-3.0459,-3.0475,-3.0477,-3.0665,-3.0666,0,0,0,-3.0169,-3.0177,-3.0203,-3.0254,-3.0275,-3.0257,-3.0266,-3.0395,-3.0404,-3.0452,-3.0461,-3.0476,-3.0478,-3.0664,-3.0666,-3.0707,0,0,0,-3.0165,-3.0166,-3.0201,-3.0198,-3.0273,-3.0336,-3.0277,-3.0396,-3.0409,-3.046,-3.0476,-3.048,-3.0663,-3.0665,-3.0704,-3.0727,0,0,0,-3.0151,-3.0165,-3.0182,-3.0198,-3.0247,-3.0334,-3.035,-3.0399,-3.0414,-3.0474,-3.048,-3.0662,-3.0665,-3.0701,-3.0722,-3.0775,0,0,0,-3.0134,-3.0218,-3.0183,-3.0279,-3.0246,-3.0359,-3.035,-3.0434,-3.049,-3.0477,-3.0663,-3.0665,-3.07,-3.0719,-3.0772,-3.0818,-3.0837,0,0,-3.0236,-3.023,-3.0287,-3.0259,-3.0377,-3.0342,-3.0466,-3.0523,-3.0534,-3.0621,-3.0626,-3.0705,-3.0722,-3.0775,-3.0947,-3.0962,0,0,0,-3.0317,-3.0358,-3.0391,-3.0444,-3.0489,-3.053,-3.0568,-3.059,-3.0664,-3.0578,-3.0739,-3.0749,-3.078,-3.0803,-3.0816,-3.0842,-3.0676,-3.0675,-3.0675,-3.0453,-3.0463,-3.0558,-3.0581,-3.0633,-3.0672,-3.0715,-3.075,-3.0744,-3.0782,-3.0808,-3.0911,-3.0937,-3.0947,-3.0975,-3.0834,-3.0834,-3.0834,-3.0834,-3.0603,-3.0662,-3.0653,-3.0742,-3.0751,-3.0826,-3.0867,-3.0861,-3.0931,-3.0893,-3.0921,-3.0877,-3.0963,-3.0988,-3.0837,-3.0837,-3.0836,-3.0836,-3.0836,-3.0693,-3.0723,-3.0747,-3.0825,-3.0883,-3.0904,-3.0973,-3.0979,-3.0986,-3.1014,-3.1041,-3.104,-3.104,-3.1026,-3.1027,-3.1027,-3.1027,-3.1028,-3.1028,-3.0776,-3.0802,-3.0858,-3.0914,-3.0948,-3.0995,-3.1035,-3.107,-3.111,-3.1109,-3.1109,-3.1099,-3.097,-3.0937,-3.1034,-3.1033,-3.1032,-3.1031,-3.1031,-3.0923,-3.0891,-3.0978,-3.1013,-3.1078,-3.1136,-3.1144,-3.1213,-3.1243,-3.1276,-3.1261,-3.1165,-3.1158,-3.1148,-3.1121,-3.1259,-3.1259,-3.1259,-3.1259,-3.0998,-3.0995,-3.1086,-3.1141,-3.1196,-3.1212,-3.1311,-3.1343,-3.1371,-3.1389,-3.1371,-3.1335,-3.1324,-3.1324,-3.131,-3.1285,-3.1462,-3.1462,-3.1462,-3.1089,-3.1092,-3.1174,-3.1201,-3.1252,-3.1296,-3.1389,-3.1453,-3.1478,-3.1471,-3.1404,-3.1396,-3.1338,-3.1319,-3.1309,-3.1287,-3.1241,0,0]},{"header":{"parameterUnit":"m.s-1","parameterCategory":1,"la1":30.2992,"la2":30.254,"lo1":-89.0895,"lo2":-89.0443,"dy":0.0025,"dx":0.0025,"nx":19,"ny":19,"refTime":"2026-04-15T03:00:00:Z","depth":0,"parameterNumber":3,"parameterNumberName":"V-component_of_WINDS"},"data":[0,0,0,4.0891,4.0895,4.1061,4.1061,4.126,4.1262,0,0,0,0,0,0,0,0,0,0,0,4.0837,4.0839,4.0891,4.0895,4.106,4.1061,4.126,4.1262,0,0,0,0,0,0,0,0,0,0,0,4.0837,4.0838,4.084,4.0896,4.106,4.1061,4.126,4.1139,0,0,0,0,0,0,0,0,0,0,4.098,4.0926,4.0838,4.084,4.0897,4.106,4.1061,4.1133,4.1146,4.1181,0,4.1213,0,4.1241,4.1275,4.1275,0,0,0,4.0898,4.0915,4.0964,4.084,4.0898,4.106,4.0987,4.114,4.1155,4.1198,4.1215,4.1223,4.1244,4.1276,4.1277,4.1472,4.1473,0,0,4.0889,4.0864,4.0954,4.0973,4.095,4.0981,4.0992,4.115,4.1166,4.1216,4.1228,4.1247,4.1277,4.1279,4.1472,4.1473,0,0,0,4.0861,4.0857,4.0903,4.0965,4.0996,4.0986,4.0998,4.1159,4.1176,4.123,4.1249,4.1278,4.1281,4.1471,4.1472,4.1486,0,0,0,4.0855,4.0841,4.0899,4.0885,4.0993,4.108,4.1004,4.1165,4.1184,4.1248,4.1278,4.1282,4.147,4.1471,4.1484,4.1496,0,0,0,4.0828,4.0838,4.086,4.0883,4.0954,4.1078,4.1105,4.117,4.1195,4.1276,4.1283,4.147,4.1471,4.1482,4.1493,4.154,0,0,0,4.0791,4.087,4.086,4.0955,4.0953,4.1087,4.1104,4.1204,4.1275,4.1279,4.147,4.1472,4.1482,4.1491,4.1538,4.1574,4.1588,0,0,4.0876,4.0879,4.0937,4.0933,4.1063,4.1063,4.1194,4.1282,4.1311,4.1416,4.1421,4.1485,4.1493,4.154,4.1672,4.1683,0,0,0,4.0955,4.0996,4.1036,4.1103,4.1173,4.1233,4.1304,4.1336,4.1427,4.1361,4.1516,4.1521,4.1549,4.1568,4.1577,4.1602,4.148,4.148,4.1479,4.1037,4.1073,4.117,4.1225,4.129,4.1362,4.1417,4.1473,4.1488,4.1524,4.1555,4.1631,4.1652,4.1659,4.1685,4.1578,4.1578,4.1578,4.1578,4.1164,4.1227,4.1247,4.1349,4.1385,4.147,4.1542,4.155,4.1632,4.1611,4.1637,4.161,4.1669,4.1694,4.158,4.1579,4.1579,4.1579,4.1579,4.1221,4.1257,4.1297,4.1398,4.1471,4.1523,4.1602,4.1632,4.166,4.1686,4.1722,4.1722,4.1724,4.1701,4.1702,4.1702,4.1702,4.1702,4.1703,4.1264,4.1309,4.1373,4.1454,4.1501,4.1566,4.1639,4.1685,4.1744,4.1759,4.1759,4.177,4.167,4.1643,4.1707,4.1706,4.1705,4.1705,4.1705,4.1378,4.1357,4.1456,4.1503,4.16,4.167,4.1708,4.1799,4.1841,4.1879,4.1885,4.1806,4.181,4.1804,4.1782,4.1878,4.1878,4.1878,4.1878,4.1425,4.1431,4.1539,4.1612,4.1687,4.1731,4.1839,4.1896,4.1952,4.198,4.197,4.1944,4.1936,4.1945,4.1935,4.1915,4.2043,4.2043,4.2043,4.1496,4.1511,4.1599,4.1655,4.1733,4.1798,4.1901,4.1982,4.204,4.2051,4.2002,4.1995,4.1953,4.1938,4.1946,4.193,4.1894,0,0]}]]